MST,Max TemperatureF,Mean TemperatureF,Min TemperatureF,Max Dew PointF,MeanDew PointF,Min DewpointF,Max Humidity, Mean Humidity, Min Humidity, Max Sea Level PressureIn, Mean Sea Level PressureIn, Min Sea Level PressureIn, Max VisibilityMiles, Mean VisibilityMiles, Min VisibilityMiles, Max Wind SpeedMPH, Mean Wind SpeedMPH, Max Gust SpeedMPH,PrecipitationIn, CloudCover, Events, WindDirDegrees
2012-7-1,108,92,76,43,30,16,27,16,4,29.74,29.67,29.59,10,10,10,17,6,24,0.00,0,,263
2012-7-2,102,90,77,70,58,38,55,38,20,29.76,29.70,29.65,10,10,9,23,12,30,0.00,1,,166
2012-7-3,93,87,80,70,65,58,69,51,32,29.83,29.76,29.71,10,9,4,26,15,32,0.00,4,,163
2012-7-4,95,89,83,68,61,50,63,46,28,29.83,29.79,29.75,10,10,10,17,8,22,0.00,5,,86
2012-7-5,102,91,79,62,52,38,58,37,16,29.87,29.81,29.75,10,10,10,17,8,18,0.00,1,,173
2012-7-6,107,91,75,51,41,25,43,25,6,29.89,29.83,29.76,10,10,10,13,6,16,0.00,0,,179
2012-7-7,111,94,76,51,37,25,40,23,5,29.86,29.81,29.74,10,10,10,16,5,22,0.00,1,,295
2012-7-8,113,97,80,44,35,25,25,15,5,29.86,29.79,29.72,10,10,10,14,8,17,0.00,2,,270
2012-7-9,113,99,85,60,50,41,35,22,9,29.83,29.76,29.68,10,10,10,15,6,17,0.00,3,,189
2012-7-10,115,101,86,64,55,42,46,28,9,29.77,29.69,29.59,10,10,10,16,8,20,0.00,5,,195
2012-7-11,108,100,91,68,60,52,39,29,19,29.80,29.72,29.65,10,10,6,25,13,30,0.00,5,,183
2012-7-12,99,89,79,73,67,59,79,54,28,29.86,29.79,29.70,10,10,5,9,7,12,0.16,6,Rain,211
2012-7-13,100,88,76,73,70,66,82,59,35,29.89,29.83,29.75,10,7,1,29,9,36,1.66,5,Rain-Thunderstorm,105
2012-7-14,102,90,78,72,68,60,79,53,27,29.88,29.82,29.74,10,10,10,21,7,26,0.00,5,,54
2012-7-15,105,93,81,68,61,52,67,43,18,29.85,29.78,29.68,10,10,10,17,8,25,0.00,2,,164
2012-7-16,106,94,82,66,55,34,55,33,11,29.79,29.74,29.66,10,9,2,20,7,24,0.00,1,,185
2012-7-17,103,91,78,54,35,21,28,17,6,29.86,29.80,29.74,10,10,6,12,4,16,0.00,1,,292
2012-7-18,106,94,81,53,38,27,26,17,7,29.88,29.81,29.74,10,10,10,12,5,18,0.00,2,,312
2012-7-19,104,95,85,69,56,47,46,32,18,29.88,29.82,29.77,10,10,10,16,6,20,0.00,5,,174
2012-7-20,108,96,83,63,58,52,40,28,16,29.88,29.81,29.73,10,10,10,14,5,17,0.00,1,,215
2012-7-21,107,97,87,72,66,61,59,41,23,29.87,29.80,29.70,10,10,7,22,11,28,T,4,,183
2012-7-22,106,97,88,69,65,62,53,39,25,29.86,29.81,29.75,10,10,10,23,8,29,0.00,5,,158
2012-7-23,107,98,89,68,60,49,50,35,19,29.85,29.79,29.72,10,10,10,15,7,18,0.00,3,,164
2012-7-24,109,98,86,57,52,46,29,22,15,29.83,29.78,29.70,10,10,10,17,6,21,0.00,2,,208
2012-7-25,107,97,87,60,54,38,36,27,17,29.86,29.79,29.72,10,10,10,17,7,22,0.00,1,,179
2012-7-26,107,95,83,69,59,48,58,37,16,29.84,29.77,29.70,10,10,10,14,7,18,0.00,1,,195
2012-7-27,109,95,80,65,51,32,58,33,8,29.85,29.78,29.70,10,10,10,13,6,15,0.00,1,,214
2012-7-28,104,92,80,67,63,54,62,42,21,29.86,29.81,29.77,10,10,10,24,12,29,T,5,Rain,173
2012-7-29,95,89,83,72,67,62,69,52,34,29.89,29.85,29.79,10,10,5,26,11,32,T,6,,166
2012-7-30,95,87,78,73,70,68,79,62,44,29.91,29.88,29.85,10,10,7,12,8,14,T,6,Rain-Thunderstorm,113
2012-7-31,95,86,76,72,69,65,81,61,41,29.96,29.91,29.86,10,10,10,15,5,18,0.00,6,,281